EHI
5 9 13 14 14 14 13 13 14 13 11 11 14 17 20 20 20 18 16 14 10 6 3 1 0 0 0 1 2 3 5 6 7 9 10 9 6 6 7 6 3 1 1
7 10 14 16 16 15 14 13 13 12 10 10 13 16 17 18 19 18 16 13 9 5 3 1 0 0 0 0 1 2 3 3 4 7 7 6 5 5 6 5 3 2 2
11 12 15 18 17 13 13 13 12 10 9 9 12 15 15 16 16 16 14 11 7 5 3 1 0 0 0 0 0 1 1 2 3 3 3 2 2 4 5 4 3 3 2
12 13 16 19 17 12 10 10 9 8 6 7 10 13 13 13 12 11 9 9 7 4 2 1 0 0 0 0 0 0 1 2 3 2 0 0 1 3 3 3 3 3 2
11 13 17 21 18 12 9 8 7 5 4 4 7 10 10 8 8 7 7 7 6 3 1 1 0 0 0 0 0 0 1 3 3 2 0 0 1 1 2 3 3 3 2
8 11 18 23 21 14 10 8 6 4 2 2 3 5 5 6 7 7 6 5 4 2 0 0 0 0 0 0 0 1 2 3 3 1 0 0 1 2 2 3 4 4 4
8 11 17 23 21 15 12 9 6 3 2 2 1 1 2 4 6 6 6 5 3 2 1 0 1 1 1 0 1 2 4 3 2 0 0 0 2 3 3 3 4 5 4
9 12 17 20 19 16 14 11 7 4 3 2 1 0 1 2 3 6 6 5 4 3 1 0 1 2 1 1 2 3 5 4 1 0 0 0 1 2 3 3 4 4 4
11 14 16 15 15 15 14 11 9 8 6 2 0 0 0 0 2 4 5 5 5 3 2 1 1 1 1 1 2 2 4 3 1 0 0 0 0 0 1 3 3 3 4
14 15 15 12 12 12 12 10 9 9 6 2 0 0 0 0 1 1 2 3 5 5 4 3 2 1 0 1 1 1 2 2 1 0 0 0 0 0 1 1 2 2 2
16 16 15 13 11 11 10 9 9 7 5 2 0 0 0 0 0 0 1 3 5 7 7 6 4 3 2 1 1 0 1 1 1 0 0 0 0 0 0 1 1 1 1
18 17 14 12 12 12 10 9 8 6 4 1 0 0 0 0 0 0 1 3 6 8 9 8 7 6 5 3 1 0 0 0 0 0 0 0 1 1 0 0 0 0 0
19 17 13 12 12 12 11 9 8 7 5 1 0 0 1 1 0 0 1 3 5 7 9 9 8 7 6 4 2 0 0 0 0 0 0 1 2 2 1 0 0 0 0
22 19 16 13 11 10 10 9 9 8 5 2 1 1 2 2 1 0 1 1 2 4 7 8 7 6 5 3 2 0 0 0 0 0 0 1 2 2 2 1 1 1 0
25 24 21 17 13 11 10 10 10 8 5 3 2 2 3 2 1 1 0 0 1 2 4 5 6 5 4 2 1 0 0 0 0 0 0 1 2 2 2 2 2 1 1
26 27 26 22 18 15 12 10 10 8 5 3 3 4 4 4 4 3 2 1 1 1 2 3 4 4 3 2 0 0 0 0 0 0 0 0 1 1 2 2 3 2 1
26 27 28 26 23 21 16 10 9 7 5 3 3 4 6 6 6 6 5 4 3 2 2 2 2 1 1 1 0 0 0 0 0 0 0 0 0 1 2 2 3 2 1
28 29 29 28 26 24 18 11 8 7 5 4 5 6 7 8 9 8 7 7 4 2 1 1 1 0 0 0 0 0 0 0 0 0 0 0 0 1 2 3 3 3 1
30 30 31 31 29 26 20 13 10 8 7 7 8 8 8 9 10 10 8 6 4 1 0 0 0 0 0 0 0 0 0 0 0 0 0 0 0 1 2 3 3 2 1
29 31 33 33 32 28 22 18 14 11 10 11 11 9 7 9 11 10 8 5 3 1 0 0 0 0 0 0 0 0 0 0 0 0 0 0 0 1 1 2 2 1 1
31 33 34 34 33 30 27 23 19 15 13 13 11 8 7 9 10 9 6 4 3 2 1 0 0 0 0 0 0 0 0 0 0 0 0 0 0 0 0 1 1 1 0
33 34 35 33 31 30 29 25 20 17 14 12 10 8 8 9 10 8 6 5 4 3 2 1 1 0 0 0 0 0 0 0 0 0 0 0 0 0 0 0 0 0 0
33 33 33 30 28 28 29 26 21 17 15 12 10 9 9 9 9 8 6 4 3 3 3 3 2 1 1 1 0 0 0 0 0 0 0 0 0 0 0 0 0 0 0
33 33 31 29 28 28 29 28 23 20 17 14 12 10 8 7 7 6 5 3 3 3 3 3 3 3 2 1 0 0 0 0 0 0 0 0 0 0 0 0 0 0 0
34 32 29 28 28 28 28 27 26 22 18 16 16 13 8 6 6 6 4 3 3 3 2 1 2 2 2 1 0 0 0 0 0 0 0 0 0 0 0 1 1 1 0
33 31 28 26 27 28 27 26 25 22 18 16 16 14 9 6 6 6 4 3 3 3 2 1 1 1 1 1 1 0 0 0 0 0 0 0 0 0 0 1 2 1 0
Wind_Speed
5 6 11 11 12 11 11 11 11 11 11 11 11 11 11 11 11 11 10 10 9 9 9 9 8 8 8 9 9 8 8 8 8 10 11 12 12 13 14 15 14 10 15
9 8 11 12 12 12 11 11 11 10 10 10 10 10 11 11 11 10 10 9 9 9 9 9 8 8 8 8 8 8 8 8 8 9 12 12 12 13 13 14 13 9 15
10 8 10 12 12 12 11 11 10 10 10 10 10 10 10 10 10 10 10 9 8 8 8 8 8 8 8 7 7 7 7 8 9 10 11 7 9 13 13 13 13 14 14
11 8 9 12 12 12 11 10 10 10 10 10 10 11 10 10 9 9 9 9 8 8 8 8 7 7 7 7 6 6 6 7 8 9 5 5 6 12 13 13 13 13 13
9 7 9 14 13 12 11 10 10 10 9 9 9 10 9 9 8 8 8 8 8 7 7 7 7 7 6 6 6 6 6 7 8 7 5 5 5 10 12 13 13 13 13
9 7 9 13 13 12 11 10 10 9 9 8 8 8 8 8 8 7 8 8 7 7 6 7 6 6 5 5 5 6 7 8 7 5 5 5 4 11 13 13 13 13 13
9 6 8 12 12 11 11 10 9 9 8 8 7 7 7 6 6 6 6 7 6 6 6 5 5 5 5 5 4 5 7 7 5 5 4 4 6 11 12 12 12 12 12
11 8 7 11 12 11 10 10 9 8 8 7 6 6 6 5 5 5 5 6 5 5 5 5 5 4 4 4 4 5 7 7 6 5 4 4 8 11 11 11 11 11 12
10 8 6 6 8 10 10 9 9 8 7 6 6 6 5 5 5 5 5 5 5 4 4 5 5 4 4 3 4 4 5 8 5 3 5 4 8 10 10 11 11 11 11
8 7 6 5 5 5 6 9 9 8 7 6 6 5 5 5 5 5 4 4 4 4 4 4 4 4 3 3 3 3 4 6 4 4 3 5 9 10 10 10 10 11 11
7 5 6 5 5 4 4 6 7 7 6 5 4 5 4 2 2 2 3 3 3 3 3 3 3 3 2 2 2 3 3 2 4 3 3 7 10 11 10 10 10 11 11
8 6 5 6 5 5 4 4 2 3 3 2 2 3 2 1 1 2 2 3 2 2 1 2 2 2 1 0 1 2 1 3 3 3 4 9 10 10 10 10 10 10 11
9 8 7 6 6 5 3 3 2 1 2 1 2 2 2 1 1 1 0 1 1 1 1 1 1 1 1 1 1 1 2 2 2 2 4 9 9 9 9 10 10 10 12
8 8 7 7 6 4 3 3 3 2 2 2 2 2 2 1 1 1 1 1 1 0 0 0 0 1 1 1 1 2 2 2 2 2 4 9 8 8 8 9 10 11 12
7 7 8 7 6 4 4 3 3 3 3 3 2 2 2 2 2 1 1 1 1 1 1 0 0 1 1 1 1 2 2 3 3 3 3 8 8 8 8 9 11 11 11
8 7 7 8 7 6 4 3 3 3 2 2 2 2 3 2 2 2 1 1 0 0 1 1 1 1 1 1 1 2 3 3 3 3 3 5 8 8 8 9 11 11 12
9 7 7 7 7 6 5 3 3 3 3 2 2 2 3 2 2 2 2 1 0 0 1 1 1 1 1 1 1 1 2 2 3 3 3 3 3 6 7 8 9 10 12
9 8 7 7 7 6 5 3 2 2 3 2 2 2 2 2 3 2 2 1 0 1 1 1 1 1 1 1 1 0 1 1 2 3 3 3 2 3 5 8 8 9 11
10 9 8 6 7 6 5 3 3 2 2 2 2 2 2 2 3 3 2 1 1 1 1 1 1 1 1 1 0 0 0 0 1 2 3 3 3 3 2 5 8 8 10
9 9 8 7 6 5 4 3 2 2 1 1 2 2 2 2 2 3 2 1 1 1 1 1 1 0 1 0 1 1 1 0 0 1 2 2 2 3 3 3 3 5 9
7 7 7 7 5 4 3 3 2 2 1 1 1 2 2 2 2 2 1 1 1 1 1 1 1 1 1 1 2 2 2 2 1 0 0 1 1 2 2 3 2 2 3
9 8 8 7 6 5 4 3 3 3 2 2 1 1 2 2 2 2 2 1 1 1 1 1 1 1 0 1 2 1 2 3 3 2 1 0 1 0 1 3 3 3 2
8 8 8 7 6 5 5 3 3 2 2 2 1 0 1 1 2 2 2 2 1 2 2 2 2 2 1 1 1 3 2 2 2 2 1 0 0 1 1 1 2 3 3
8 8 7 7 6 5 5 5 5 4 2 2 1 1 0 0 1 1 1 2 2 1 1 2 2 1 2 1 1 1 2 3 2 1 2 2 1 1 2 2 2 2 3
6 7 7 6 5 5 5 5 5 3 2 1 1 1 1 0 0 1 1 1 1 1 1 1 1 1 2 2 2 1 1 1 2 2 1 2 2 1 1 2 2 2 2
6 5 5 5 4 4 5 5 5 5 3 3 2 2 1 1 1 1 0 0 1 1 1 1 2 2 2 2 2 2 2 2 2 2 2 2 2 2 1 1 2 2 2
Wind_Direction
151 153 136 127 120 112 107 102 97 93 90 88 89 93 94 96 100 102 102 104 106 107 107 108 108 107 107 109 114 120 126 129 131 137 140 138 140 140 139 139 138 136 134
150 150 135 129 123 117 112 107 102 97 94 92 92 96 97 97 99 102 102 102 102 103 103 104 105 106 108 111 113 115 122 124 127 130 135 138 139 142 142 140 137 135 137
143 145 136 129 126 122 117 113 109 104 99 96 96 98 98 98 99 102 103 103 103 103 103 102 101 101 103 103 107 111 113 122 124 128 131 133 137 140 144 143 138 136 139
142 143 136 131 128 124 120 118 114 109 105 102 101 101 101 102 101 103 105 104 105 106 106 107 105 102 100 99 99 104 106 116 123 122 119 130 136 141 146 144 142 141 141
139 139 141 135 131 127 124 121 118 114 111 108 107 105 104 104 105 106 107 107 109 111 110 110 107 105 101 97 96 96 101 116 122 114 111 119 129 143 148 146 146 145 144
136 139 143 137 135 132 129 125 122 120 118 115 112 110 107 108 109 111 112 111 114 117 115 114 111 109 106 99 93 91 96 100 110 109 116 126 134 141 147 149 146 146 147
137 141 142 138 137 137 136 133 129 127 124 122 120 117 115 116 115 114 116 118 118 120 121 119 112 105 108 110 105 98 102 100 101 109 113 127 137 142 148 150 149 148 151
141 142 142 141 140 141 141 139 135 133 130 127 126 125 125 125 126 127 125 128 126 127 131 129 119 108 99 102 113 108 109 117 115 115 119 130 143 147 150 154 158 156 155
140 141 140 146 147 147 145 144 143 140 137 135 134 131 127 127 130 138 136 140 137 140 141 139 136 129 116 103 100 105 112 116 114 123 135 139 151 154 155 161 163 162 161
139 143 143 144 147 149 153 151 150 147 146 145 147 144 140 140 137 143 142 150 152 159 161 158 160 156 146 131 111 105 112 120 124 128 136 150 158 162 163 164 165 165 165
141 146 148 147 150 155 161 163 157 154 152 149 156 154 150 151 157 152 156 158 164 166 169 179 184 182 178 158 140 128 116 122 129 133 151 164 169 174 173 173 172 171 170
154 159 158 156 157 158 167 153 157 159 158 146 143 156 157 148 173 165 182 185 181 181 196 211 215 226 231 159 157 157 127 138 142 157 169 172 175 175 175 178 180 177 174
161 159 164 161 159 163 158 146 149 146 145 146 152 157 149 140 163 175 163 227 232 215 242 307 292 260 242 207 177 169 160 153 162 178 177 179 181 179 180 184 183 181 180
156 162 164 159 155 156 146 152 148 149 160 164 173 157 142 140 155 156 173 201 215 215 208 255 279 282 257 241 194 172 171 164 171 176 185 185 186 186 189 191 186 184 184
160 165 163 157 152 150 141 153 149 161 165 170 160 158 145 145 154 152 169 177 202 177 181 209 258 264 265 242 195 169 176 180 182 181 182 188 193 194 193 193 190 190 187
161 164 160 161 157 150 147 155 155 161 156 151 149 151 154 153 150 143 143 173 197 167 174 168 179 193 247 216 153 169 173 172 185 183 188 195 198 199 196 197 192 187 185
165 162 158 159 152 149 150 161 150 157 145 148 155 150 146 147 148 136 139 161 211 146 100 107 100 86 78 68 77 180 180 174 174 182 191 197 203 204 199 199 195 193 190
162 160 159 157 153 154 153 154 139 143 142 153 151 144 145 141 139 137 141 163 163 94 95 105 83 70 63 78 74 254 212 190 187 187 191 196 203 208 205 197 194 198 199
163 160 157 157 155 158 151 142 133 135 135 148 145 147 150 135 131 132 136 147 117 91 72 94 89 109 100 67 132 161 270 213 207 202 202 202 204 207 204 199 194 201 196
160 158 155 152 153 149 135 121 106 109 128 132 144 153 150 142 131 126 132 132 126 108 81 71 99 84 134 128 62 32 359 322 202 211 215 213 215 207 196 198 194 204 194
149 149 150 148 148 142 136 142 140 161 167 156 159 152 146 130 129 128 125 135 130 138 151 144 119 91 46 65 70 24 359 357 2 257 228 180 209 214 186 184 184 193 188
163 155 151 153 155 158 162 164 159 152 157 161 153 134 141 132 137 137 137 157 157 149 125 132 121 110 185 104 113 88 5 350 343 345 345 168 199 183 172 186 180 189 186
163 162 159 159 160 158 144 122 107 77 57 55 89 151 199 155 148 143 163 167 164 160 182 196 169 151 176 248 142 139 145 212 304 326 320 351 182 178 208 188 180 183 182
169 158 153 152 150 150 140 136 142 146 154 185 179 170 155 115 116 137 160 166 163 166 185 211 188 179 157 192 260 182 172 163 156 301 323 313 264 205 210 198 182 175 173
150 150 150 148 146 145 142 141 144 144 155 143 123 112 137 203 190 183 152 149 159 170 192 217 197 200 179 179 187 183 144 110 136 155 239 298 317 281 234 205 178 177 173
128 127 130 133 140 150 145 140 148 151 149 141 148 166 197 232 264 274 149 158 199 186 194 213 213 212 208 194 190 178 168 166 184 170 189 233 264 278 270 223 183 178 177